Weather History for KLSV - February, 2014

Change the Weather History Date:

Tuesday, February 11, 2014

  Actual Average Record
Temperature  
Mean Temperature 56 °F -  
Max Temperature 66 °F 60 °F 72 °F (2008)
Min Temperature 47 °F 38 °F 30 °F (2002)
Degree Days  
Heating Degree Days 8    
Growing Degree Days 6 (Base 50)    
Moisture  
Dew Point 27 °F    
Average Humidity 33    
Maximum Humidity 46    
Minimum Humidity 22    
Precipitation  
Precipitation 0.00 in - - ()
Sea Level Pressure  
Sea Level Pressure 30.11 in    
Wind  
Wind Speed 4 mph (ENE)    
Max Wind Speed 9 mph    
Max Gust Speed -    
Visibility 10 miles    
Events      
Averages and records for this station are not official NWS values.
T = Trace of Precipitation, MM = Missing Value Source: NWS Daily Summary

Daily Weather History Graph

Daily Weather History Graph

Search for Another Location

Airport or City:

Trip Planner

Search our weather history database for the weather conditions in past years. The results will help you decide how hot, cold, wet, or windy it might be!

Date:

Astronomy

Feb. 11, 2014 Rise Set
Actual Time 6:31 AM PST 5:17 PM PST
Civil Twilight 6:05 AM PST 5:43 PM PST
Nautical Twilight 5:35 AM PST 6:14 PM PST
Astronomical Twilight 5:05 AM PST 6:44 PM PST
Moon 2:43 PM PST (2/11) 4:09 AM PST (2/11)
Length of Visible Light 11h 38m
Length of Day
10h 45m
Waxing Gibbous, 91% of the Moon is Illuminated
Feb 11
Waxing Gibbous
Feb 14
Full
Feb 22
Last Quarter
Mar 1
New
Mar 8
First Quarter

Hourly Weather History & Observations

Time (PST) Temp. Dew Point Humidity Pressure Visibility Wind Dir Wind Speed Gust Speed Precip Events Conditions
12:58 AM 58.1 °F 26.6 °F 30% 30.06 in 10.0 mi ENE 6.9 mph - N/A   Clear
1:58 AM 55.4 °F 27.5 °F 34% 30.08 in 10.0 mi NE 6.9 mph - N/A   Clear
2:58 AM 52.9 °F 26.4 °F 36% 30.09 in 10.0 mi WSW 2.3 mph - N/A   Clear
3:58 AM 52.9 °F 28.2 °F 39% 30.08 in 10.0 mi East 9.2 mph - N/A   Clear
4:58 AM 50.4 °F 26.2 °F 39% 30.10 in 10.0 mi NNE 4.6 mph - N/A   Clear
5:58 AM 48.0 °F 26.8 °F 44% 30.10 in 10.0 mi NE 6.9 mph - N/A   Clear
6:58 AM 47.7 °F 26.6 °F 44% 30.14 in 10.0 mi South 4.6 mph - N/A   Clear
7:58 AM 48.0 °F 28.0 °F 46% 30.15 in 10.0 mi Calm Calm - N/A   Clear
8:58 AM 52.9 °F 28.4 °F 39% 30.17 in 10.0 mi Calm Calm - N/A   Clear
9:58 AM 57.2 °F 27.0 °F 31% 30.15 in 10.0 mi NNW 1.2 mph - N/A   Clear
10:58 AM 60.3 °F 28.2 °F 30% 30.14 in 10.0 mi East 2.3 mph - N/A   Clear
11:58 AM 63.0 °F 28.8 °F 28% 30.12 in 10.0 mi Calm Calm - N/A   Clear
12:58 PM 64.6 °F 27.3 °F 25% 30.06 in 10.0 mi East 2.3 mph - N/A   Clear
1:58 PM 65.3 °F 27.0 °F 24% 30.04 in 10.0 mi East 8.1 mph - N/A   Clear
2:58 PM 65.8 °F 26.2 °F 22% 30.04 in 10.0 mi Variable 6.9 mph - N/A   Clear
3:58 PM 66.2 °F 25.5 °F 22% 30.04 in 10.0 mi East 2.3 mph - N/A   Clear
4:58 PM 65.8 °F 26.2 °F 22% 30.06 in 10.0 mi ESE 3.5 mph - N/A   Clear
5:58 PM 61.5 °F 26.6 °F 27% 30.09 in 10.0 mi Calm Calm - N/A   Clear
6:58 PM 56.1 °F 26.2 °F 32% 30.10 in 10.0 mi NNE 3.5 mph - N/A   Clear
7:58 PM 53.4 °F 26.1 °F 35% 30.12 in 10.0 mi ESE 2.3 mph - N/A   Clear
8:58 PM 53.2 °F 26.1 °F 35% 30.13 in 10.0 mi NNE 1.2 mph - N/A   Clear
9:58 PM 51.6 °F 25.7 °F 37% 30.15 in 10.0 mi East 4.6 mph - N/A   Clear
10:58 PM 48.7 °F 25.0 °F 40% 30.16 in 10.0 mi NE 2.3 mph - N/A   Clear
11:58 PM 47.5 °F 23.9 °F 40% 30.17 in 10.0 mi Calm Calm - N/A   Clear